Orbital Elements at Epoch 2459000.5 (2020-May-31.0) TDB
Reference: JPL 14 (heliocentric ecliptic J2000)
Element | Value | Uncertainty (1-sigma) | Units |
e | .1087385998072626 | 4.8547e-08 | |
a | 2.958628803516731 | 2.5717e-08 | au |
q | 2.636911650072885 | 1.4897e-07 | au |
i | 7.189541413137844 | 5.5071e-06 | deg |
node | 149.0894221664156 | 3.6087e-05 | deg |
peri | 215.3809208939827 | 4.4434e-05 | deg |
M | 297.9350940058599 | 2.5993e-05 | deg |
tp | 2459320.962893372206 (2021-Apr-16.46289337) | 0.00013505 | TDB |
period | 1858.80635386585 5.09 | 2.4236e-05 6.635e-08 | d yr |
n | .1936726756131915 | 2.5252e-09 | deg/d |
Q | 3.280345956960577 | 2.8513e-08 | au |
|
| | Orbit Determination Parameters
Additional Information
|